Terminal Aerodrome Forecast
Issued by NWS

Home | Current Version | Previous Version | Text Only | Print | Product List | Glossary On
Versions: 1 2 3 4 5 6 7 8 9 10 11 12 13 14 15 16 17
000
FTUS45 KRIW 142332
TAFPNA
TAF
KPNA 142332Z 1500/1524 31007KT P6SM FEW080
     FM150900 VRB06KT P6SM VCFG FEW001
     FM151400 VRB06KT P6SM SCT150
      AMD LTD TO CLD VIS AND WIND=

USA.gov is the U.S. government's official web portal to all federal, state and local government web resources and services.